KUIPER-00178

Last updated on Sun Mar 15 2026 00:02:06 GMT+0000 (Coordinated Universal Time)

1 67767U 26030D 26073.58335648 .00020888 00000+0 68874-3 0 9995 2 67767 51.8845 195.6822 0008012 59.5583 279.1762 15.31378826 5110
UTC large
Height (km)
Speed (km/s)
/
Latitude / Longitude
Inclination (degrees)
Orbital Period (minutes)
Azimuth
Elevation
Range (km)
Doppler Factor

Next 0 passes for location: London (51.5072 / 0.1276)

Sorry there are no passes over London.